When you browse on this site, cookies collect data to enhance your experience and personalize the content and advertising you see.
Visit our Privacy Policy to learn more. By continuing to use the site, you agree to this use of cookies and data.
  • In United Kingdom
  • List of Countries
  • For 7 days
  • Water Temperature
  • Weather Map
  • Weather Widgets
  • user-avatar
    Login

    Hourly Weather Bucov

    Today, 23 September, Monday

    Time Temperature Precipitation Wind Pressure Humidity
    00:00 +14°C° 0 mm 1 mps 749 mmHg 41%
    01:00 +13°C° 0 mm 1 mps 749 mmHg 42%
    02:00 +13°C° 0 mm 1 mps 749 mmHg 44%
    03:00 +13°C° 0 mm 1 mps 749 mmHg 44%
    04:00 +13°C° 0 mm 1 mps 748 mmHg 44%
    05:00 +13°C° 0 mm 1 mps 748 mmHg 45%
    06:00 +14°C° 0 mm 1 mps 748 mmHg 42%
    07:00 +16°C° 0 mm 1 mps 748 mmHg 38%
    08:00 +16°C° 0 mm 0 mps 748 mmHg 35%
    09:00 +21°C° 0 mm 1 mps 748 mmHg 30%
    10:00 +23°C° 0 mm 1 mps 748 mmHg 26%
    11:00 +25°C° 0 mm 2 mps 748 mmHg 21%
    12:00 +26°C° 0 mm 2 mps 747 mmHg 19%
    13:00 +27°C° 0 mm 2 mps 747 mmHg 18%
    14:00 +28°C° 0 mm 2 mps 746 mmHg 16%
    15:00 +27°C° 0 mm 2 mps 746 mmHg 17%
    16:00 +27°C° 0 mm 2 mps 746 mmHg 18%
    17:00 +26°C° 0 mm 2 mps 745 mmHg 19%
    18:00 +25°C° 0 mm 1 mps 746 mmHg 21%
    19:00 +23°C° 0 mm 1 mps 746 mmHg 23%
    20:00 +20°C° 0 mm 0 mps 746 mmHg 24%
    21:00 +21°C° 0 mm 1 mps 746 mmHg 26%
    22:00 +21°C° 0 mm 1 mps 746 mmHg 29%
    23:00 +21°C° 0 mm 1 mps 746 mmHg 31%

    Tomorrow, 24 September, Tuesday

    Time Temperature Precipitation Wind Pressure Humidity
    00:00 +20°C° 0 mm 1 mps 746 mmHg 34%
    01:00 +20°C° 0 mm 1 mps 746 mmHg 37%
    02:00 +19°C° 0 mm 1 mps 746 mmHg 40%
    03:00 +19°C° 0 mm 1 mps 746 mmHg 45%
    04:00 +19°C° 0 mm 1 mps 746 mmHg 50%
    05:00 +18°C° 0 mm 1 mps 746 mmHg 55%
    06:00 +18°C° 0 mm 1 mps 746 mmHg 59%
    07:00 +17°C° 0 mm 2 mps 746 mmHg 62%
    08:00 +17°C° 0 mm 2 mps 747 mmHg 65%
    09:00 +17°C° 0 mm 2 mps 747 mmHg 67%
    10:00 +17°C° 0 mm 3 mps 747 mmHg 68%
    11:00 +17°C° 0 mm 3 mps 747 mmHg 70%
    12:00 +17°C° 0 mm 3 mps 747 mmHg 67%
    13:00 +18°C° 0 mm 2 mps 747 mmHg 65%
    14:00 +18°C° 0 mm 2 mps 747 mmHg 62%
    15:00 +18°C° 0 mm 2 mps 746 mmHg 60%
    16:00 +18°C° 0 mm 2 mps 746 mmHg 58%
    17:00 +19°C° 0 mm 2 mps 746 mmHg 56%
    18:00 +17°C° 0 mm 2 mps 746 mmHg 64%
    19:00 +16°C° 0 mm 1 mps 746 mmHg 72%
    20:00 +14°C° 0 mm 1 mps 747 mmHg 80%
    21:00 +14°C° 0 mm 1 mps 747 mmHg 81%
    22:00 +14°C° 0 mm 1 mps 747 mmHg 83%
    23:00 +13°C° 0 mm 1 mps 747 mmHg 84%

    Day after tomorrow, 25 September, Wednesday

    Time Temperature Precipitation Wind Pressure Humidity
    00:00 +13°C° 0 mm 1 mps 747 mmHg 83%
    01:00 +13°C° 0 mm 1 mps 747 mmHg 83%
    02:00 +13°C° 0 mm 1 mps 747 mmHg 82%
    03:00 +13°C° 0 mm 1 mps 747 mmHg 81%
    04:00 +13°C° 0 mm 1 mps 747 mmHg 80%
    05:00 +13°C° 0 mm 1 mps 747 mmHg 79%
    06:00 +14°C° 0 mm 1 mps 747 mmHg 75%
    07:00 +15°C° 0 mm 1 mps 747 mmHg 70%
    08:00 +17°C° 0 mm 2 mps 747 mmHg 65%
    09:00 +18°C° 0 mm 2 mps 747 mmHg 62%
    10:00 +19°C° 0 mm 2 mps 747 mmHg 60%
    11:00 +20°C° 0 mm 2 mps 747 mmHg 57%
    12:00 +21°C° 0 mm 2 mps 747 mmHg 55%
    13:00 +22°C° 0 mm 1 mps 746 mmHg 53%
    14:00 +23°C° 0 mm 1 mps 746 mmHg 51%
    15:00 +23°C° 0 mm 1 mps 746 mmHg 50%
    16:00 +23°C° 0 mm 1 mps 745 mmHg 50%
    17:00 +23°C° 0 mm 1 mps 745 mmHg 50%
    18:00 +21°C° 0 mm 1 mps 746 mmHg 55%
    19:00 +20°C° 0 mm 1 mps 746 mmHg 59%
    20:00 +19°C° 0 mm 1 mps 746 mmHg 63%
    21:00 +19°C° 0.1 mm 1 mps 746 mmHg 67%
    22:00 +19°C° 0.1 mm 1 mps 746 mmHg 70%
    23:00 +19°C° 0.1 mm 1 mps 746 mmHg 73%

    26 September, Thursday

    Time Temperature Precipitation Wind Pressure Humidity
    00:00 +18°C° 0.1 mm 1 mps 746 mmHg 76%
    01:00 +18°C° 0.1 mm 1 mps 746 mmHg 79%
    02:00 +16°C° 0.1 mm 1 mps 746 mmHg 82%
    03:00 +16°C° 0.2 mm 1 mps 746 mmHg 84%
    04:00 +16°C° 0.2 mm 1 mps 746 mmHg 86%
    05:00 +16°C° 0.2 mm 1 mps 746 mmHg 88%
    06:00 +16°C° 0.1 mm 1 mps 746 mmHg 86%
    07:00 +18°C° 0.1 mm 1 mps 746 mmHg 84%
    08:00 +18°C° 0.1 mm 1 mps 746 mmHg 83%
    09:00 +20°C° 0 mm 1 mps 746 mmHg 76%
    10:00 +20°C° 0 mm 2 mps 746 mmHg 70%
    11:00 +23°C° 0 mm 2 mps 746 mmHg 63%
    12:00 +23°C° 0.4 mm 2 mps 746 mmHg 61%
    13:00 +23°C° 0.4 mm 1 mps 745 mmHg 60%
    14:00 +24°C° 0.4 mm 1 mps 745 mmHg 58%
    15:00 +23°C° 0.2 mm 2 mps 745 mmHg 60%
    16:00 +23°C° 0.2 mm 2 mps 745 mmHg 62%
    17:00 +21°C° 0.2 mm 2 mps 745 mmHg 64%
    18:00 +20°C° 0.5 mm 2 mps 745 mmHg 71%
    19:00 +19°C° 0.5 mm 2 mps 745 mmHg 78%
    20:00 +19°C° 0.5 mm 1 mps 745 mmHg 85%
    21:00 +19°C° 0.4 mm 1 mps 745 mmHg 85%
    22:00 +17°C° 0.4 mm 2 mps 745 mmHg 85%
    23:00 +17°C° 0.4 mm 2 mps 746 mmHg 85%

    27 September, Friday

    Time Temperature Precipitation Wind Pressure Humidity
    00:00 +17°C° 0.1 mm 2 mps 746 mmHg 84%
    01:00 +17°C° 0.1 mm 2 mps 746 mmHg 83%
    02:00 +17°C° 0.1 mm 2 mps 746 mmHg 82%
    03:00 +16°C° 0 mm 2 mps 746 mmHg 80%
    04:00 +16°C° 0 mm 2 mps 746 mmHg 79%
    05:00 +16°C° 0 mm 2 mps 747 mmHg 78%
    06:00 +18°C° 0 mm 1 mps 747 mmHg 73%
    07:00 +19°C° 0 mm 1 mps 747 mmHg 69%
    08:00 +19°C° 0 mm 1 mps 748 mmHg 65%
    09:00 +21°C° 0 mm 1 mps 748 mmHg 59%
    10:00 +22°C° 0 mm 1 mps 749 mmHg 53%
    11:00 +23°C° 0 mm 1 mps 749 mmHg 48%
    12:00 +24°C° 0 mm 1 mps 749 mmHg 46%
    13:00 +24°C° 0 mm 1 mps 749 mmHg 44%
    14:00 +25°C° 0 mm 1 mps 749 mmHg 43%
    15:00 +24°C° 0 mm 2 mps 749 mmHg 44%
    16:00 +24°C° 0 mm 2 mps 749 mmHg 46%
    17:00 +23°C° 0 mm 2 mps 749 mmHg 48%
    18:00 +21°C° 0 mm 2 mps 750 mmHg 54%
    19:00 +19°C° 0 mm 2 mps 750 mmHg 60%
    20:00 +17°C° 0 mm 2 mps 751 mmHg 67%
    21:00 +18°C° 0 mm 1 mps 751 mmHg 69%
    22:00 +16°C° 0 mm 1 mps 751 mmHg 71%
    23:00 +15°C° 0 mm 1 mps 752 mmHg 73%

    28 September, Saturday

    Time Temperature Precipitation Wind Pressure Humidity
    00:00 +15°C° 0 mm 1 mps 752 mmHg 75%
    01:00 +15°C° 0 mm 1 mps 752 mmHg 76%
    02:00 +14°C° 0 mm 1 mps 752 mmHg 77%
    03:00 +14°C° 0 mm 1 mps 752 mmHg 77%
    04:00 +14°C° 0 mm 1 mps 752 mmHg 78%
    05:00 +14°C° 0 mm 1 mps 752 mmHg 79%
    06:00 +15°C° 0 mm 1 mps 752 mmHg 74%
    07:00 +16°C° 0 mm 1 mps 751 mmHg 70%
    08:00 +18°C° 0 mm 1 mps 751 mmHg 65%
    09:00 +20°C° 0 mm 1 mps 751 mmHg 59%
    10:00 +21°C° 0 mm 2 mps 751 mmHg 53%
    11:00 +24°C° 0 mm 3 mps 751 mmHg 47%
    12:00 +25°C° 0 mm 3 mps 751 mmHg 43%
    13:00 +26°C° 0 mm 3 mps 750 mmHg 39%
    14:00 +27°C° 0 mm 3 mps 750 mmHg 35%
    15:00 +27°C° 0 mm 2 mps 749 mmHg 35%
    16:00 +27°C° 0 mm 2 mps 749 mmHg 35%
    17:00 +26°C° 0 mm 1 mps 749 mmHg 35%
    18:00 +24°C° 0 mm 2 mps 749 mmHg 39%
    19:00 +21°C° 0 mm 2 mps 749 mmHg 44%
    20:00 +19°C° 0 mm 2 mps 749 mmHg 49%
    21:00 +20°C° 0 mm 1 mps 749 mmHg 55%
    22:00 +19°C° 0 mm 1 mps 749 mmHg 60%
    23:00 +18°C° 0 mm 1 mps 749 mmHg 66%
    Show more